| time (UTC) | temp F | wind direction | speed knots | gust knots | rain 1hr in | rain 24hr in | rain mn in | humidity % | barometer mb |
| 20260510090037 | 52 | 173 | 0.0 | 0.0 | 0.00 | 0.64 | 0.00 | 100 | 1012.0 |
| 20260510084037 | 52 | 173 | 0.0 | 0.0 | 0.00 | 0.64 | 0.00 | 100 | 1011.7 |
| 20260510082037 | 52 | 173 | 0.0 | 0.0 | 0.00 | 0.64 | 0.00 | 100 | 1011.7 |
| 20260510081929 | 52 | 173 | 0.0 | 0.0 | 0.00 | 0.64 | 0.00 | 100 | 1011.7 |
| 20260510080038 | 52 | 173 | 0.0 | 0.0 | 0.00 | 0.64 | 0.00 | 100 | 1011.8 |
| 20260510074037 | 52 | 172 | 0.0 | 0.0 | 0.00 | 0.64 | 0.00 | 100 | 1011.9 |
| 20260510072037 | 52 | 172 | 0.0 | 0.0 | 0.00 | 0.64 | 0.00 | 100 | 1011.8 |
| 20260510071929 | 52 | 172 | 0.0 | 0.0 | 0.00 | 0.64 | 0.00 | 100 | 1011.8 |
| 20260510070039 | 52 | 172 | 0.0 | 0.0 | 0.00 | 0.64 | 0.00 | 100 | 1011.5 |
| 20260510064038 | 52 | 172 | 0.0 | 0.0 | 0.00 | 0.64 | 0.00 | 100 | 1011.5 |
| 20260510062037 | 52 | 172 | 0.0 | 0.0 | 0.00 | 0.64 | 0.00 | 100 | 1011.3 |
| 20260510061929 | 52 | 172 | 0.0 | 0.0 | 0.00 | 0.64 | 0.00 | 100 | 1011.3 |
| 20260510060037 | 52 | 172 | 0.0 | 0.0 | 0.00 | 0.64 | 0.00 | 100 | 1011.5 |
| 20260510054037 | 52 | 172 | 0.0 | 0.0 | 0.00 | 0.64 | 0.00 | 100 | 1011.6 |
| 20260510052037 | 52 | 172 | 0.0 | 0.0 | 0.00 | 0.64 | 0.00 | 100 | 1011.7 |
| 20260510051929 | 52 | 172 | 0.0 | 0.0 | 0.00 | 0.64 | 0.00 | 100 | 1011.6 |
| 20260510050037 | 52 | 172 | 0.0 | 0.0 | 0.00 | 0.64 | 0.00 | 100 | 1011.2 |
| 20260510044037 | 52 | 172 | 0.0 | 0.0 | 0.00 | 0.64 | 0.00 | 100 | 1011.2 |
| 20260510042037 | 52 | 172 | 0.0 | 0.0 | 0.00 | 0.64 | 0.00 | 100 | 1011.4 |
| 20260510041929 | 52 | 172 | 0.0 | 0.0 | 0.00 | 0.64 | 0.00 | 100 | 1011.5 |
| 20260510034038 | 52 | 172 | 0.0 | 0.0 | 0.00 | 0.64 | 0.64 | 100 | 1011.4 |
| 20260510032037 | 52 | 172 | 0.0 | 0.0 | 0.00 | 0.64 | 0.64 | 100 | 1011.2 |
| 20260510031929 | 52 | 172 | 0.0 | 0.0 | 0.00 | 0.64 | 0.64 | 100 | 1011.1 |
| 20260510030037 | 52 | 172 | 0.0 | 0.0 | 0.00 | 0.64 | 0.64 | 100 | 1011.3 |
| 20260510024037 | 52 | 172 | 0.0 | 0.0 | 0.07 | 0.64 | 0.64 | 100 | 1011.6 |
| 20260510022134 | 52 | 172 | 0.0 | 0.0 | 0.07 | 0.64 | 0.64 | 100 | 1011.6 |
| 20260510022038 | 52 | 172 | 0.0 | 0.0 | 0.07 | 0.64 | 0.64 | 100 | 1011.6 |
| 20260510021929 | 52 | 172 | 0.0 | 0.0 | 0.07 | 0.64 | 0.64 | 100 | 1011.6 |
| 20260510020037 | 52 | 172 | 0.0 | 0.0 | 0.10 | 0.57 | 0.57 | 100 | 1011.8 |
| 20260510014037 | 52 | 172 | 0.0 | 0.0 | 0.10 | 0.57 | 0.57 | 100 | 1011.9 |
| 20260510012037 | 52 | 184 | 0.0 | 0.0 | 0.10 | 0.57 | 0.57 | 100 | 1012.0 |
| 20260510011929 | 52 | 184 | 0.0 | 0.0 | 0.10 | 0.57 | 0.57 | 100 | 1012.0 |
| 20260510010037 | 53 | 187 | 0.0 | 0.0 | 0.10 | 0.57 | 0.57 | 100 | 1012.5 |
| 20260510004037 | 53 | 187 | 0.0 | 0.0 | 0.12 | 0.47 | 0.47 | 100 | 1012.9 |
| 20260510002037 | 53 | 185 | 0.0 | 0.0 | 0.12 | 0.47 | 0.47 | 100 | 1012.4 |
| 20260510001929 | 53 | 185 | 0.0 | 0.0 | 0.12 | 0.47 | 0.47 | 100 | 1012.5 |
| 20260509234037 | 54 | 198 | 0.0 | 0.0 | 0.14 | 0.35 | 0.35 | 100 | 1012.2 |
| 20260509232037 | 54 | 199 | 0.0 | 0.0 | 0.14 | 0.35 | 0.35 | 100 | 1012.2 |
| 20260509231929 | 55 | 204 | 0.0 | 0.0 | 0.14 | 0.35 | 0.35 | 100 | 1012.2 |
| 20260509230037 | 54 | 217 | 0.0 | 0.0 | 0.12 | 0.21 | 0.21 | 100 | 1012.1 |
| 20260509224037 | 55 | 217 | 0.0 | 0.0 | 0.12 | 0.21 | 0.21 | 100 | 1012.2 |
| 20260509222037 | 55 | 187 | 0.0 | 0.0 | 0.12 | 0.21 | 0.21 | 100 | 1012.2 |
| 20260509221929 | 55 | 184 | 0.0 | 0.0 | 0.12 | 0.21 | 0.21 | 100 | 1012.4 |
| 20260509220037 | 55 | 185 | 0.0 | 0.0 | 0.12 | 0.21 | 0.21 | 3 | 1012.1 |
| 20260509214037 | 55 | 180 | 0.0 | 7.8 | 0.04 | 0.09 | 0.09 | 8 | 1012.0 |
| 20260509212037 | 56 | 175 | 0.0 | 7.8 | 0.04 | 0.09 | 0.09 | 13 | 1011.8 |
| 20260509211929 | 56 | 175 | 0.0 | 7.8 | 0.04 | 0.09 | 0.09 | 14 | 1011.7 |
| 20260509204037 | 57 | 223 | 2.6 | 13.0 | 0.01 | 0.05 | 0.05 | 31 | 1011.8 |
| 20260509202037 | 58 | 195 | 0.0 | 13.0 | 0.01 | 0.05 | 0.05 | 38 | 1011.6 |
| 20260509201929 | 58 | 195 | 0.0 | 13.0 | 0.01 | 0.05 | 0.05 | 39 | 1011.6 |
| 20260509200039 | 60 | 230 | 4.3 | 12.2 | 0.00 | 0.04 | 0.04 | 59 | 1011.4 |
| 20260509194037 | 61 | 170 | 1.7 | 12.2 | 0.00 | 0.04 | 0.04 | 63 | 1011.0 |
| 20260509192037 | 61 | 188 | 0.0 | 12.2 | 0.00 | 0.04 | 0.04 | 63 | 1011.0 |
| 20260509191929 | 61 | 188 | 0.0 | 12.2 | 0.00 | 0.04 | 0.04 | 63 | 1011.1 |
| 20260509190038 | 61 | 182 | 5.2 | 12.2 | 0.00 | 0.04 | 0.04 | 62 | 1011.1 |
| 20260509184037 | 62 | 207 | 0.0 | 12.2 | 0.00 | 0.04 | 0.04 | 65 | 1011.3 |
| 20260509182037 | 61 | 200 | 0.0 | 12.2 | 0.00 | 0.04 | 0.04 | 65 | 1011.4 |
| 20260509181929 | 61 | 200 | 4.3 | 12.2 | 0.00 | 0.04 | 0.04 | 65 | 1011.3 |
| 20260509180039 | 60 | 226 | 0.0 | 13.0 | 0.00 | 0.04 | 0.04 | 64 | 1011.6 |
| 20260509174037 | 59 | 211 | 0.0 | 13.0 | 0.00 | 0.04 | 0.04 | 64 | 1011.7 |
| 20260509172037 | 59 | 181 | 0.0 | 13.0 | 0.00 | 0.04 | 0.04 | 64 | 1012.3 |
| 20260509171929 | 59 | 182 | 0.0 | 13.0 | 0.00 | 0.04 | 0.04 | 65 | 1012.3 |
| 20260509170037 | 60 | 189 | 4.3 | 13.9 | 0.00 | 0.04 | 0.04 | 66 | 1012.6 |
| 20260509164037 | 60 | 226 | 0.0 | 13.9 | 0.00 | 0.04 | 0.04 | 65 | 1012.5 |
| 20260509162037 | 61 | 230 | 4.3 | 13.9 | 0.00 | 0.04 | 0.04 | 65 | 1012.4 |
| 20260509161929 | 61 | 200 | 7.8 | 13.9 | 0.00 | 0.04 | 0.04 | 65 | 1012.4 |
| 20260509160037 | 61 | 202 | 0.0 | 9.6 | 0.00 | 0.04 | 0.04 | 65 | 1012.4 |
| 20260509154037 | 61 | 195 | 2.6 | 9.6 | 0.00 | 0.04 | 0.04 | 65 | 1012.5 |
| 20260509151929 | 59 | 188 | 0.0 | 9.6 | 0.00 | 0.04 | 0.04 | 63 | 1012.5 |
| 20260509150037 | 57 | 200 | 0.0 | 9.6 | 0.00 | 0.04 | 0.04 | 59 | 1012.7 |
| 20260509144037 | 55 | 196 | 0.0 | 0.0 | 0.00 | 0.04 | 0.04 | 37 | 1012.9 |
| 20260509142037 | 54 | 194 | 0.0 | 0.0 | 0.00 | 0.04 | 0.04 | 22 | 1013.1 |
| 20260509141929 | 54 | 194 | 0.0 | 0.0 | 0.00 | 0.04 | 0.04 | 22 | 1013.1 |
| 20260509140037 | 52 | 202 | 0.0 | 0.0 | 0.00 | 0.04 | 0.04 | 1 | 1013.4 |
| 20260509134036 | 51 | 290 | 0.0 | 0.0 | 0.00 | 0.04 | 0.04 | 100 | 1013.7 |
| 20260509132037 | 49 | 290 | 0.0 | 0.0 | 0.00 | 0.04 | 0.04 | 100 | 1014.2 |
| 20260509131929 | 49 | 290 | 0.0 | 0.0 | 0.00 | 0.04 | 0.04 | 100 | 1014.2 |
| 20260509130037 | 48 | 290 | 0.0 | 0.0 | 0.00 | 0.04 | 0.04 | 100 | 1014.0 |
| 20260509122038 | 46 | 290 | 0.0 | 0.0 | 0.00 | 0.04 | 0.04 | 1 | 1014.4 |
| 20260509121929 | 46 | 290 | 0.0 | 0.0 | 0.00 | 0.04 | 0.04 | 1 | 1014.4 |
| 20260509120037 | 45 | 290 | 0.0 | 0.0 | 0.03 | 0.04 | 0.04 | 4 | 1014.1 |
| 20260509114037 | 44 | 290 | 0.0 | 0.0 | 0.03 | 0.04 | 0.04 | 8 | 1014.3 |
| 20260509112037 | 43 | 290 | 0.0 | 0.0 | 0.03 | 0.04 | 0.04 | 12 | 1014.5 |
| 20260509111929 | 43 | 290 | 0.0 | 0.0 | 0.03 | 0.04 | 0.04 | 13 | 1014.5 |
| 20260509110037 | 43 | 290 | 0.0 | 0.0 | 0.01 | 0.01 | 0.01 | 15 | 1014.5 |
| 20260509104037 | 42 | 290 | 0.0 | 0.0 | 0.01 | 0.01 | 0.01 | 20 | 1014.8 |
| 20260509101929 | 42 | 290 | 0.0 | 0.0 | 0.01 | 0.01 | 0.01 | 25 | 1014.6 |
| 20260509094037 | 42 | 290 | 0.0 | 0.0 | 0.00 | 0.00 | 0.00 | 37 | 1014.2 |
| 20260509092037 | 43 | 290 | 0.0 | 0.0 | 0.00 | 0.00 | 0.00 | 39 | 1014.3 |
| 20260509091929 | 43 | 290 | 0.0 | 0.0 | 0.00 | 0.00 | 0.00 | 39 | 1014.2 |